Location: Newark
(45.6833°N, 12.6333°E)
Time: 16:24:34
(UTC+00:00)

N. Korean satellite - Pass Details

Date: 24 November 2019
Orbit: 455 x 506 km, 97.2° (Epoch: 10 December)

Event Time Altitude Azimuth Distance (km) Brightness Sun altitude
Rises 04:00:09 0° 31° (NNE) 2,605 10.6 -24.1°
Reaches altitude 10° 04:03:06 10° 57° (ENE) 1,705 10.0 -23.6°
Maximum altitude 04:05:07 14° 90° (E) 1,450 9.9 -23.2°
Drops below altitude 10° 04:07:07 10° 124° (SE) 1,682 10.1 -22.9°
Sets 04:09:59 0° 150° (SSE) 2,544 10.7 -22.4°
